Harrisburg, PA

9:04 AM EST on December 17, 2017 (GMT -0500)
Capital City

Weather History for KCXY - September, 2013

Change the Weather History Date:

Friday, September 27, 2013

  Actual Average Record
Temperature  
Mean Temperature 64 °F -  
Max Temperature 73 °F 69 °F 91 °F (1998)
Min Temperature 55 °F 50 °F 34 °F (1947)
Degree Days  
Heating Degree Days 1    
Growing Degree Days 14 (Base 50)    
Moisture  
Dew Point 53 °F    
Average Humidity 71    
Maximum Humidity 89    
Minimum Humidity 40    
Precipitation  
Precipitation 0.00 in - - ()
Sea Level Pressure  
Sea Level Pressure 30.18 in    
Wind  
Wind Speed 3 mph (East)    
Max Wind Speed 7 mph    
Max Gust Speed -    
Visibility 10 miles    
Events      
Averages and records for this station are not official NWS values.
T = Trace of Precipitation, MM = Missing Value Source: NWS Daily Summary

Daily Weather History Graph

Daily Weather History Graph

Search for Another Location

Airport or City:

Trip Planner

Search our weather history database for the weather conditions in past years. The results will help you decide how hot, cold, wet, or windy it might be!

Date:

Astronomy

Sep. 27, 2013 Rise Set
Actual Time 7:00 AM EDT 6:55 PM EDT
Civil Twilight 6:32 AM EDT 7:22 PM EDT
Nautical Twilight 6:01 AM EDT 7:54 PM EDT
Astronomical Twilight 5:29 AM EDT 8:26 PM EDT
Moon No Moon Rise 2:33 PM EDT (9/27)
Length of Visible Light 12h 49m
Length of Day
11h 55m
Last Quarter, 45% of the Moon is Illuminated
Sep 27
Last Quarter
Oct 4
New
Oct 11
First Quarter
Oct 18
Full
Oct 26
Last Quarter

Hourly Weather History & Observations

Time (EDT) Temp. Dew Point Humidity Pressure Visibility Wind Dir Wind Speed Gust Speed Precip Events Conditions
12:56 AM 59.0 °F 53.1 °F 81% 30.09 in 10.0 mi Calm Calm - N/A   Overcast
1:56 AM 59.0 °F 54.0 °F 83% 30.10 in 10.0 mi Calm Calm - N/A   Overcast
2:56 AM 59.0 °F 55.0 °F 87% 30.11 in 10.0 mi Calm Calm - N/A   Overcast
3:56 AM 62.1 °F 55.9 °F 80% 30.11 in 10.0 mi East 5.8 mph - N/A   Overcast
4:56 AM 61.0 °F 55.9 °F 83% 30.12 in 10.0 mi East 5.8 mph - N/A   Overcast
5:56 AM 61.0 °F 55.9 °F 83% 30.14 in 10.0 mi East 6.9 mph - N/A   Overcast
6:45 AM 60.8 °F 55.4 °F 82% 30.16 in 8.0 mi East 6.9 mph - N/A   Overcast
6:56 AM 60.1 °F 55.9 °F 86% 30.17 in 5.0 mi East 6.9 mph - N/A   Overcast
7:49 AM 60.8 °F 57.2 °F 88% 30.19 in 7.0 mi East 5.8 mph - N/A   Overcast
7:56 AM 61.0 °F 55.9 °F 83% 30.19 in 7.0 mi East 5.8 mph - N/A   Overcast
8:56 AM 61.0 °F 55.0 °F 81% 30.21 in 10.0 mi East 5.8 mph - N/A   Overcast
9:38 AM 62.6 °F 53.6 °F 72% 30.21 in 10.0 mi East 3.5 mph - N/A   Overcast
9:56 AM 62.1 °F 54.0 °F 75% 30.22 in 10.0 mi East 4.6 mph - N/A   Overcast
10:56 AM 64.0 °F 55.0 °F 73% 30.23 in 10.0 mi ENE 4.6 mph - N/A   Overcast
11:15 AM 64.4 °F 55.4 °F 73% 30.23 in 10.0 mi East 5.8 mph - N/A   Overcast
11:56 AM 68.0 °F 55.9 °F 65% 30.23 in 10.0 mi Variable 3.5 mph - N/A   Scattered Clouds
12:56 PM 70.0 °F 53.1 °F 55% 30.21 in 10.0 mi Variable 3.5 mph - N/A   Clear
1:56 PM 72.0 °F 52.0 °F 49% 30.19 in 10.0 mi Variable 5.8 mph - N/A   Mostly Cloudy
2:56 PM 73.0 °F 50.0 °F 44% 30.18 in 10.0 mi Variable 3.5 mph - N/A   Partly Cloudy
3:56 PM 73.0 °F 48.0 °F 41% 30.17 in 10.0 mi Calm Calm - N/A   Partly Cloudy
4:56 PM 73.9 °F 48.0 °F 40% 30.17 in 10.0 mi East 4.6 mph - N/A   Partly Cloudy
5:56 PM 72.0 °F 46.9 °F 41% 30.17 in 10.0 mi SE 4.6 mph - N/A   Scattered Clouds
6:56 PM 68.0 °F 50.0 °F 52% 30.19 in 10.0 mi SE 4.6 mph - N/A   Partly Cloudy
7:56 PM 63.0 °F 51.1 °F 65% 30.20 in 10.0 mi SE 3.5 mph - N/A   Clear
8:56 PM 62.1 °F 53.1 °F 72% 30.22 in 10.0 mi ESE 4.6 mph - N/A   Clear
9:56 PM 59.0 °F 52.0 °F 78% 30.23 in 10.0 mi Calm Calm - N/A   Clear
10:56 PM 55.9 °F 52.0 °F 87% 30.25 in 10.0 mi Calm Calm - N/A   Clear
11:56 PM 55.0 °F 52.0 °F 89% 30.26 in 10.0 mi Calm Calm - N/A   Overcast